Time,TemperatureF,DewpointF,PressureIn,WindDirection,WindDirectionDegrees,WindSpeedMPH,WindSpeedGustMPH,Humidity,HourlyPrecipIn,Conditions,Clouds,dailyrainin,SoftwareType,DateUTC
2013-01-19 00:03:00,19.8,-2.9,29.94,North,0,0.0,0.0,36,0.00,,---,0.00,VWS V14.00,2013-01-19 05:03:00,
2013-01-19 00:04:00,19.8,-2.9,29.94,North,0,0.0,0.0,36,0.00,,---,0.00,VWS V14.00,2013-01-19 05:04:00,
2013-01-19 00:05:00,19.8,-2.9,29.94,North,0,0.0,0.0,36,0.00,,---,0.00,VWS V14.00,2013-01-19 05:05:00,
2013-01-19 00:10:00,19.9,-2.7,29.94,North,0,0.0,0.0,36,0.00,,---,0.00,VWS V14.00,2013-01-19 05:10:00,
2013-01-19 00:11:00,20.1,-2.5,29.94,North,0,0.0,0.0,36,0.00,,---,0.00,VWS V14.00,2013-01-19 05:11:00,
2013-01-19 00:16:00,20.1,-3.1,29.94,North,0,0.0,0.0,35,0.00,,---,0.00,VWS V14.00,2013-01-19 05:16:00,
2013-01-19 00:21:00,20.3,-3.0,29.94,North,0,0.0,0.0,35,0.00,,---,0.00,VWS V14.00,2013-01-19 05:21:00,
2013-01-19 00:26:00,20.3,-3.0,29.94,North,0,0.0,0.0,35,0.00,,---,0.00,VWS V14.00,2013-01-19 05:26:00,
2013-01-19 00:31:00,20.5,-2.2,29.94,North,0,0.0,0.0,36,0.00,,---,0.00,VWS V14.00,2013-01-19 05:31:00,
2013-01-19 00:36:00,20.7,-2.1,29.94,North,0,0.0,0.0,36,0.00,,---,0.00,VWS V14.00,2013-01-19 05:36:00,
2013-01-19 00:42:00,20.8,-2.5,29.94,North,0,0.0,0.0,35,0.00,,---,0.00,VWS V14.00,2013-01-19 05:42:00,
2013-01-19 00:47:00,21.0,-1.7,29.94,North,0,0.0,0.0,36,0.00,,---,0.00,VWS V14.00,2013-01-19 05:47:00,
2013-01-19 00:52:00,21.0,-2.3,29.94,North,0,0.0,0.0,35,0.00,,---,0.00,VWS V14.00,2013-01-19 05:52:00,
2013-01-19 00:57:00,21.2,-1.6,29.94,North,0,0.0,0.0,36,0.00,,---,0.00,VWS V14.00,2013-01-19 05:57:00,
2013-01-19 01:02:00,21.2,-1.6,29.94,North,0,0.0,0.0,36,0.00,,---,0.00,VWS V14.00,2013-01-19 06:02:00,
2013-01-19 01:08:00,21.4,-2.0,29.94,North,0,0.0,0.0,35,0.00,,---,0.00,VWS V14.00,2013-01-19 06:08:00,
2013-01-19 01:14:00,21.6,-1.9,29.94,North,0,0.0,0.0,35,0.00,,---,0.00,VWS V14.00,2013-01-19 06:14:00,
2013-01-19 01:19:00,21.6,-1.2,29.91,North,0,0.0,0.0,36,0.00,,---,0.00,VWS V14.00,2013-01-19 06:19:00,
2013-01-19 01:24:00,21.7,-1.1,29.91,North,0,0.0,0.0,36,0.00,,---,0.00,VWS V14.00,2013-01-19 06:24:00,
2013-01-19 01:30:00,21.9,-0.9,29.91,North,0,0.0,0.0,36,0.00,,---,0.00,VWS V14.00,2013-01-19 06:30:00,
2013-01-19 01:35:00,22.3,-0.6,29.94,North,0,0.0,0.0,36,0.00,,---,0.00,VWS V14.00,2013-01-19 06:35:00,
2013-01-19 01:40:00,22.5,-0.4,29.94,North,0,0.0,0.0,36,0.00,,---,0.00,VWS V14.00,2013-01-19 06:40:00,
2013-01-19 01:45:00,22.6,-0.3,29.91,North,0,0.0,0.0,36,0.00,,---,0.00,VWS V14.00,2013-01-19 06:45:00,
2013-01-19 01:51:00,22.8,-0.1,29.91,North,0,0.0,0.0,36,0.00,,---,0.00,VWS V14.00,2013-01-19 06:51:00,
2013-01-19 01:56:00,22.8,-0.1,29.91,North,0,0.0,0.0,36,0.00,,---,0.00,VWS V14.00,2013-01-19 06:56:00,
2013-01-19 02:01:00,23.0,0.0,29.91,North,0,0.0,0.0,36,0.00,,---,0.00,VWS V14.00,2013-01-19 07:01:00,
2013-01-19 02:06:00,23.4,0.4,29.91,North,0,0.0,0.0,36,0.00,,---,0.00,VWS V14.00,2013-01-19 07:06:00,
2013-01-19 02:11:00,23.5,0.5,29.91,North,0,0.0,0.0,36,0.00,,---,0.00,VWS V14.00,2013-01-19 07:11:00,
2013-01-19 02:16:00,23.5,-0.1,29.91,North,0,0.0,0.0,35,0.00,,---,0.00,VWS V14.00,2013-01-19 07:16:00,
2013-01-19 02:22:00,23.7,0.7,29.91,North,0,0.0,0.0,36,0.00,,---,0.00,VWS V14.00,2013-01-19 07:22:00,
2013-01-19 02:28:00,23.7,0.1,29.91,North,0,0.0,0.0,35,0.00,,---,0.00,VWS V14.00,2013-01-19 07:28:00,
2013-01-19 02:33:00,23.7,0.7,29.91,North,0,0.0,0.0,36,0.00,,---,0.00,VWS V14.00,2013-01-19 07:33:00,
2013-01-19 02:38:00,23.7,0.7,29.91,North,0,0.0,0.0,36,0.00,,---,0.00,VWS V14.00,2013-01-19 07:38:00,
2013-01-19 02:43:00,23.5,0.5,29.91,North,0,0.0,0.0,36,0.00,,---,0.00,VWS V14.00,2013-01-19 07:43:00,
2013-01-19 02:49:00,23.5,0.5,29.88,North,0,0.0,0.0,36,0.00,,---,0.00,VWS V14.00,2013-01-19 07:49:00,
2013-01-19 02:54:00,23.5,0.5,29.88,North,0,0.0,0.0,36,0.00,,---,0.00,VWS V14.00,2013-01-19 07:54:00,
2013-01-19 02:59:00,23.5,1.1,29.88,North,0,0.0,0.0,37,0.00,,---,0.00,VWS V14.00,2013-01-19 07:59:00,
2013-01-19 03:05:00,23.9,1.4,29.88,North,0,0.0,0.0,37,0.00,,---,0.00,VWS V14.00,2013-01-19 08:05:00,
2013-01-19 03:10:00,24.1,1.6,29.88,North,0,0.0,0.0,37,0.00,,---,0.00,VWS V14.00,2013-01-19 08:10:00,
2013-01-19 03:15:00,24.1,1.6,29.88,North,0,0.0,0.0,37,0.00,,---,0.00,VWS V14.00,2013-01-19 08:15:00,
2013-01-19 03:20:00,24.4,2.5,29.88,North,0,0.0,0.0,38,0.00,,---,0.00,VWS V14.00,2013-01-19 08:20:00,
2013-01-19 03:26:00,24.8,3.4,29.88,North,0,0.0,0.0,39,0.00,,---,0.00,VWS V14.00,2013-01-19 08:26:00,
2013-01-19 03:31:00,25.3,3.9,29.85,North,0,0.0,0.0,39,0.00,,---,0.00,VWS V14.00,2013-01-19 08:31:00,
2013-01-19 03:36:00,25.7,4.2,29.85,North,0,0.0,0.0,39,0.00,,---,0.00,VWS V14.00,2013-01-19 08:36:00,
2013-01-19 03:42:00,26.1,4.5,29.85,North,0,0.0,0.0,39,0.00,,---,0.00,VWS V14.00,2013-01-19 08:42:00,
2013-01-19 03:47:00,26.1,4.5,29.85,North,0,0.0,0.0,39,0.00,,---,0.00,VWS V14.00,2013-01-19 08:47:00,
2013-01-19 03:53:00,26.4,4.8,29.85,North,0,0.0,0.0,39,0.00,,---,0.00,VWS V14.00,2013-01-19 08:53:00,
2013-01-19 03:58:00,26.4,5.9,29.85,North,0,0.0,0.0,41,0.00,,---,0.00,VWS V14.00,2013-01-19 08:58:00,
2013-01-19 04:03:00,26.4,5.9,29.85,North,0,0.0,0.0,41,0.00,,---,0.00,VWS V14.00,2013-01-19 09:03:00,
2013-01-19 04:08:00,26.6,6.1,29.85,North,0,0.0,0.0,41,0.00,,---,0.00,VWS V14.00,2013-01-19 09:08:00,
2013-01-19 04:13:00,26.6,6.1,29.85,North,0,0.0,0.0,41,0.00,,---,0.00,VWS V14.00,2013-01-19 09:13:00,
2013-01-19 04:19:00,26.8,6.2,29.85,North,0,0.0,0.0,41,0.00,,---,0.00,VWS V14.00,2013-01-19 09:19:00,
2013-01-19 04:24:00,26.8,6.2,29.85,North,0,0.0,0.0,41,0.00,,---,0.00,VWS V14.00,2013-01-19 09:24:00,
2013-01-19 04:29:00,27.0,6.4,29.85,North,0,0.0,0.0,41,0.00,,---,0.00,VWS V14.00,2013-01-19 09:29:00,
2013-01-19 04:34:00,27.7,7.6,29.83,North,0,0.0,0.0,42,0.00,,---,0.00,VWS V14.00,2013-01-19 09:34:00,
2013-01-19 04:40:00,27.9,7.2,29.83,North,0,0.0,0.0,41,0.00,,---,0.00,VWS V14.00,2013-01-19 09:40:00,
2013-01-19 04:45:00,27.9,7.8,29.83,North,0,0.0,0.0,42,0.00,,---,0.00,VWS V14.00,2013-01-19 09:45:00,
2013-01-19 04:50:00,28.2,8.1,29.83,North,0,0.0,0.0,42,0.00,,---,0.00,VWS V14.00,2013-01-19 09:50:00,
2013-01-19 04:55:00,28.2,7.6,29.83,North,0,0.0,0.0,41,0.00,,---,0.00,VWS V14.00,2013-01-19 09:55:00,
2013-01-19 05:01:00,28.0,7.9,29.83,North,0,0.0,0.0,42,0.00,,---,0.00,VWS V14.00,2013-01-19 10:01:00,
2013-01-19 05:06:00,28.0,7.9,29.83,North,0,0.0,0.0,42,0.00,,---,0.00,VWS V14.00,2013-01-19 10:06:00,
2013-01-19 05:11:00,28.2,8.1,29.83,North,0,0.0,0.0,42,0.00,,---,0.00,VWS V14.00,2013-01-19 10:11:00,
2013-01-19 05:16:00,28.6,7.9,29.83,North,0,0.0,0.0,41,0.00,,---,0.00,VWS V14.00,2013-01-19 10:16:00,
2013-01-19 05:22:00,28.8,8.0,29.83,North,0,0.0,0.0,41,0.00,,---,0.00,VWS V14.00,2013-01-19 10:22:00,
2013-01-19 05:28:00,28.9,8.2,29.83,North,0,0.0,0.0,41,0.00,,---,0.00,VWS V14.00,2013-01-19 10:28:00,
2013-01-19 05:33:00,29.3,8.5,29.80,North,0,0.0,0.0,41,0.00,,---,0.00,VWS V14.00,2013-01-19 10:33:00,
2013-01-19 05:38:00,29.5,8.7,29.80,North,0,0.0,0.0,41,0.00,,---,0.00,VWS V14.00,2013-01-19 10:38:00,
2013-01-19 05:43:00,29.5,8.7,29.80,North,0,0.0,0.0,41,0.00,,---,0.00,VWS V14.00,2013-01-19 10:43:00,
2013-01-19 05:48:00,29.8,9.0,29.80,North,0,0.0,0.0,41,0.00,,---,0.00,VWS V14.00,2013-01-19 10:48:00,
2013-01-19 05:54:00,29.8,9.0,29.80,North,0,0.0,0.0,41,0.00,,---,0.00,VWS V14.00,2013-01-19 10:54:00,
2013-01-19 05:59:00,29.8,9.0,29.80,North,0,0.0,0.0,41,0.00,,---,0.00,VWS V14.00,2013-01-19 10:59:00,
2013-01-19 06:04:00,30.2,9.4,29.80,North,0,0.0,0.0,41,0.00,,---,0.00,VWS V14.00,2013-01-19 11:04:00,
2013-01-19 06:10:00,30.0,9.2,29.80,North,0,0.0,0.0,41,0.00,,---,0.00,VWS V14.00,2013-01-19 11:10:00,
2013-01-19 06:15:00,30.2,9.4,29.80,North,0,0.0,0.0,41,0.00,,---,0.00,VWS V14.00,2013-01-19 11:15:00,
2013-01-19 07:49:00,31.3,10.3,29.77,North,0,0.0,0.0,41,0.00,,---,0.00,VWS V14.00,2013-01-19 12:49:00,
2013-01-19 07:50:00,31.5,10.5,29.77,North,0,0.0,0.0,41,0.00,,---,0.00,VWS V14.00,2013-01-19 12:50:00,
2013-01-19 07:52:00,31.5,10.5,29.77,North,0,0.0,0.0,41,0.00,,---,0.00,VWS V14.00,2013-01-19 12:52:00,
2013-01-19 07:53:00,31.6,10.6,29.77,North,0,0.0,0.0,41,0.00,,---,0.00,VWS V14.00,2013-01-19 12:53:00,
2013-01-19 07:58:00,32.0,11.0,29.77,North,0,0.0,0.0,41,0.00,,---,0.00,VWS V14.00,2013-01-19 12:58:00,
2013-01-19 08:03:00,32.7,11.6,29.77,North,0,0.0,0.0,41,0.00,,---,0.00,VWS V14.00,2013-01-19 13:03:00,
2013-01-19 08:08:00,34.3,12.5,29.77,North,0,0.0,0.0,40,0.00,,---,0.00,VWS V14.00,2013-01-19 13:08:00,
2013-01-19 08:14:00,34.2,12.4,29.77,North,0,0.0,0.0,40,0.00,,---,0.00,VWS V14.00,2013-01-19 13:14:00,
2013-01-19 08:19:00,33.6,12.4,29.77,North,0,0.0,0.0,41,0.00,,---,0.00,VWS V14.00,2013-01-19 13:19:00,
2013-01-19 08:24:00,34.0,12.2,29.77,North,0,0.0,0.0,40,0.00,,---,0.00,VWS V14.00,2013-01-19 13:24:00,
2013-01-19 08:30:00,37.4,14.7,29.77,North,0,0.0,0.0,39,0.00,,---,0.00,VWS V14.00,2013-01-19 13:30:00,
2013-01-19 08:35:00,37.4,14.7,29.77,North,0,0.0,0.0,39,0.00,,---,0.00,VWS V14.00,2013-01-19 13:35:00,
2013-01-19 08:40:00,37.6,14.9,29.77,North,0,0.0,0.0,39,0.00,,---,0.00,VWS V14.00,2013-01-19 13:40:00,
2013-01-19 08:45:00,36.9,14.2,29.77,North,0,0.0,0.0,39,0.00,,---,0.00,VWS V14.00,2013-01-19 13:45:00,
2013-01-19 08:50:00,35.6,13.7,29.77,North,0,0.0,0.0,40,0.00,,---,0.00,VWS V14.00,2013-01-19 13:50:00,
2013-01-19 08:56:00,36.5,14.5,29.77,North,0,0.0,0.0,40,0.00,,---,0.00,VWS V14.00,2013-01-19 13:56:00,
2013-01-19 09:01:00,37.8,15.0,29.77,North,0,0.0,0.0,39,0.00,,---,0.00,VWS V14.00,2013-01-19 14:01:00,
2013-01-19 09:06:00,36.7,14.1,29.77,North,0,0.0,0.0,39,0.00,,---,0.00,VWS V14.00,2013-01-19 14:06:00,
2013-01-19 09:11:00,36.1,14.2,29.77,North,0,0.0,0.0,40,0.00,,---,0.00,VWS V14.00,2013-01-19 14:11:00,
2013-01-19 09:17:00,36.3,14.3,29.77,North,0,0.0,0.0,40,0.00,,---,0.00,VWS V14.00,2013-01-19 14:17:00,
2013-01-19 09:23:00,36.9,14.8,29.77,North,0,0.0,0.0,40,0.00,,---,0.00,VWS V14.00,2013-01-19 14:23:00,
2013-01-19 09:28:00,37.2,15.1,29.77,North,0,0.0,0.0,40,0.00,,---,0.00,VWS V14.00,2013-01-19 14:28:00,
2013-01-19 09:33:00,37.8,15.0,29.77,North,0,0.0,0.0,39,0.00,,---,0.00,VWS V14.00,2013-01-19 14:33:00,
2013-01-19 09:39:00,38.8,16.0,29.77,North,0,0.0,0.0,39,0.00,,---,0.00,VWS V14.00,2013-01-19 14:39:00,
2013-01-19 09:44:00,39.2,16.3,29.77,North,0,0.0,0.0,39,0.00,,---,0.00,VWS V14.00,2013-01-19 14:44:00,
2013-01-19 09:49:00,39.4,16.5,29.77,North,0,0.0,0.0,39,0.00,,---,0.00,VWS V14.00,2013-01-19 14:49:00,
2013-01-19 09:54:00,39.4,15.9,29.77,North,0,0.0,0.0,38,0.00,,---,0.00,VWS V14.00,2013-01-19 14:54:00,
2013-01-19 09:59:00,39.2,16.3,29.77,North,0,0.0,0.0,39,0.00,,---,0.00,VWS V14.00,2013-01-19 14:59:00,
2013-01-19 10:05:00,39.4,15.9,29.74,North,0,0.0,0.0,38,0.00,,---,0.00,VWS V14.00,2013-01-19 15:05:00,
2013-01-19 10:10:00,39.4,15.9,29.74,North,0,0.0,0.0,38,0.00,,---,0.00,VWS V14.00,2013-01-19 15:10:00,
2013-01-19 10:15:00,39.4,15.9,29.74,North,0,0.0,0.0,38,0.00,,---,0.00,VWS V14.00,2013-01-19 15:15:00,
2013-01-19 10:20:00,39.4,15.9,29.74,North,0,0.0,0.0,38,0.00,,---,0.00,VWS V14.00,2013-01-19 15:20:00,
2013-01-19 10:25:00,39.6,16.1,29.74,North,0,0.0,0.0,38,0.00,,---,0.00,VWS V14.00,2013-01-19 15:25:00,
2013-01-19 10:31:00,39.7,15.6,29.74,North,0,0.0,0.0,37,0.00,,---,0.00,VWS V14.00,2013-01-19 15:31:00,
2013-01-19 10:36:00,39.9,15.8,29.74,North,0,0.0,0.0,37,0.00,,---,0.00,VWS V14.00,2013-01-19 15:36:00,
2013-01-19 10:41:00,40.3,15.5,29.74,North,0,0.0,0.0,36,0.00,,---,0.00,VWS V14.00,2013-01-19 15:41:00,
2013-01-19 10:46:00,40.3,15.5,29.71,North,0,0.0,0.0,36,0.00,,---,0.00,VWS V14.00,2013-01-19 15:46:00,
2013-01-19 10:52:00,40.6,15.8,29.71,North,0,0.0,0.0,36,0.00,,---,0.00,VWS V14.00,2013-01-19 15:52:00,
2013-01-19 10:58:00,40.6,15.1,29.71,North,0,0.0,0.0,35,0.00,,---,0.00,VWS V14.00,2013-01-19 15:58:00,
2013-01-19 11:03:00,41.0,14.8,29.71,North,0,0.0,0.0,34,0.00,,---,0.00,VWS V14.00,2013-01-19 16:03:00,
2013-01-19 11:08:00,41.2,15.0,29.71,North,0,0.0,0.0,34,0.00,,---,0.00,VWS V14.00,2013-01-19 16:08:00,
2013-01-19 11:13:00,41.5,15.3,29.71,North,0,0.0,0.0,34,0.00,,---,0.00,VWS V14.00,2013-01-19 16:13:00,
2013-01-19 11:19:00,41.7,15.4,29.71,North,0,0.0,0.0,34,0.00,,---,0.00,VWS V14.00,2013-01-19 16:19:00,
2013-01-19 11:24:00,42.1,15.8,29.71,North,0,0.0,0.0,34,0.00,,---,0.00,VWS V14.00,2013-01-19 16:24:00,
2013-01-19 11:29:00,42.3,15.2,29.71,North,0,0.0,0.0,33,0.00,,---,0.00,VWS V14.00,2013-01-19 16:29:00,
2013-01-19 11:34:00,42.8,15.7,29.68,North,0,0.0,0.0,33,0.00,,---,0.00,VWS V14.00,2013-01-19 16:34:00,
2013-01-19 11:40:00,43.0,15.2,29.68,North,0,0.0,0.0,32,0.00,,---,0.00,VWS V14.00,2013-01-19 16:40:00,
2013-01-19 11:45:00,43.0,15.2,29.68,North,0,0.0,0.0,32,0.00,,---,0.00,VWS V14.00,2013-01-19 16:45:00,
2013-01-19 11:50:00,43.0,14.4,29.68,North,0,0.0,0.0,31,0.00,,---,0.00,VWS V14.00,2013-01-19 16:50:00,
2013-01-19 11:55:00,43.2,15.3,29.68,North,0,0.0,0.0,32,0.00,,---,0.00,VWS V14.00,2013-01-19 16:55:00,
2013-01-19 12:01:00,43.3,14.8,29.65,North,0,0.0,0.0,31,0.00,,---,0.00,VWS V14.00,2013-01-19 17:01:00,
2013-01-19 12:07:00,43.3,14.8,29.65,North,0,0.0,0.0,31,0.00,,---,0.00,VWS V14.00,2013-01-19 17:07:00,
2013-01-19 12:13:00,43.0,14.4,29.65,North,0,0.0,0.0,31,0.00,,---,0.00,VWS V14.00,2013-01-19 17:13:00,
2013-01-19 12:19:00,43.3,14.8,29.65,North,0,0.0,0.0,31,0.00,,---,0.00,VWS V14.00,2013-01-19 17:19:00,
2013-01-19 12:24:00,43.5,14.9,29.65,North,0,0.0,0.0,31,0.00,,---,0.00,VWS V14.00,2013-01-19 17:24:00,
2013-01-19 12:30:00,43.9,15.2,29.65,North,0,0.0,0.0,31,0.00,,---,0.00,VWS V14.00,2013-01-19 17:30:00,
2013-01-19 12:35:00,43.9,15.2,29.62,North,0,0.0,0.0,31,0.00,,---,0.00,VWS V14.00,2013-01-19 17:35:00,
2013-01-19 12:40:00,44.1,15.4,29.62,North,0,0.0,0.0,31,0.00,,---,0.00,VWS V14.00,2013-01-19 17:40:00,
2013-01-19 12:45:00,44.1,15.4,29.62,North,0,0.0,0.0,31,0.00,,---,0.00,VWS V14.00,2013-01-19 17:45:00,
2013-01-19 12:52:00,43.7,15.1,29.62,North,0,0.0,0.0,31,0.00,,---,0.00,VWS V14.00,2013-01-19 17:52:00,
2013-01-19 12:58:00,43.5,14.9,29.62,North,0,0.0,0.0,31,0.00,,---,0.00,VWS V14.00,2013-01-19 17:58:00,
2013-01-19 13:05:00,43.5,14.9,29.62,North,0,0.0,0.0,31,0.00,,---,0.00,VWS V14.00,2013-01-19 18:05:00,
2013-01-19 13:13:00,43.9,15.2,29.62,North,0,0.0,0.0,31,0.00,,---,0.00,VWS V14.00,2013-01-19 18:13:00,
2013-01-19 13:18:00,43.7,15.1,29.62,North,0,0.0,0.0,31,0.00,,---,0.00,VWS V14.00,2013-01-19 18:18:00,
2013-01-19 13:23:00,43.7,15.1,29.62,North,0,0.0,0.0,31,0.00,,---,0.00,VWS V14.00,2013-01-19 18:23:00,
2013-01-19 13:29:00,44.6,15.1,29.62,North,0,0.0,0.0,30,0.00,,---,0.00,VWS V14.00,2013-01-19 18:29:00,
2013-01-19 13:35:00,45.7,16.0,29.62,North,0,0.0,0.0,30,0.00,,---,0.00,VWS V14.00,2013-01-19 18:35:00,
2013-01-19 13:41:00,46.0,16.4,29.62,North,0,0.0,0.0,30,0.00,,---,0.00,VWS V14.00,2013-01-19 18:41:00,
2013-01-19 13:46:00,46.4,15.9,29.62,North,0,0.0,0.0,29,0.00,,---,0.00,VWS V14.00,2013-01-19 18:46:00,
2013-01-19 13:53:00,46.6,16.0,29.62,North,0,0.0,0.0,29,0.00,,---,0.00,VWS V14.00,2013-01-19 18:53:00,
2013-01-19 13:59:00,46.2,16.5,29.62,North,0,0.0,0.0,30,0.00,,---,0.00,VWS V14.00,2013-01-19 18:59:00,
2013-01-19 14:05:00,46.6,16.0,29.59,North,0,0.0,0.0,29,0.00,,---,0.00,VWS V14.00,2013-01-19 19:05:00,
2013-01-19 14:11:00,46.4,15.9,29.59,North,0,0.0,0.0,29,0.00,,---,0.00,VWS V14.00,2013-01-19 19:11:00,
2013-01-19 14:18:00,46.4,15.9,29.59,North,0,0.0,0.0,29,0.00,,---,0.00,VWS V14.00,2013-01-19 19:18:00,
2013-01-19 14:24:00,46.4,15.9,29.59,North,0,0.0,0.0,29,0.00,,---,0.00,VWS V14.00,2013-01-19 19:24:00,
2013-01-19 14:30:00,46.8,16.2,29.59,North,0,0.0,0.0,29,0.00,,---,0.00,VWS V14.00,2013-01-19 19:30:00,
2013-01-19 14:35:00,46.6,16.0,29.59,North,0,0.0,0.0,29,0.00,,---,0.00,VWS V14.00,2013-01-19 19:35:00,
2013-01-19 14:42:00,46.6,16.0,29.59,North,0,0.0,0.0,29,0.00,,---,0.00,VWS V14.00,2013-01-19 19:42:00,
2013-01-19 14:48:00,46.4,15.9,29.59,North,0,0.0,0.0,29,0.00,,---,0.00,VWS V14.00,2013-01-19 19:48:00,
2013-01-19 14:53:00,46.4,15.9,29.59,North,0,0.0,0.0,29,0.00,,---,0.00,VWS V14.00,2013-01-19 19:53:00,
2013-01-19 14:58:00,46.4,15.9,29.59,North,0,0.0,0.0,29,0.00,,---,0.00,VWS V14.00,2013-01-19 19:58:00,
2013-01-19 15:06:00,46.2,15.7,29.59,North,0,0.0,0.0,29,0.00,,---,0.00,VWS V14.00,2013-01-19 20:06:00,
2013-01-19 15:13:00,46.0,15.6,29.59,North,0,0.0,0.0,29,0.00,,---,0.00,VWS V14.00,2013-01-19 20:13:00,
2013-01-19 15:19:00,45.9,15.4,29.59,North,0,0.0,0.0,29,0.00,,---,0.00,VWS V14.00,2013-01-19 20:19:00,
2013-01-19 15:25:00,45.7,15.3,29.59,North,0,0.0,0.0,29,0.00,,---,0.00,VWS V14.00,2013-01-19 20:25:00,
2013-01-19 15:31:00,45.5,15.1,29.59,North,0,0.0,0.0,29,0.00,,---,0.00,VWS V14.00,2013-01-19 20:31:00,
2013-01-19 15:37:00,45.3,14.9,29.59,North,0,0.0,0.0,29,0.00,,---,0.00,VWS V14.00,2013-01-19 20:37:00,
2013-01-19 15:43:00,45.3,15.7,29.59,North,0,0.0,0.0,30,0.00,,---,0.00,VWS V14.00,2013-01-19 20:43:00,
2013-01-19 15:49:00,45.0,14.6,29.59,North,0,0.0,0.0,29,0.00,,---,0.00,VWS V14.00,2013-01-19 20:49:00,
2013-01-19 15:55:00,44.8,14.5,29.59,North,0,0.0,0.0,29,0.00,,---,0.00,VWS V14.00,2013-01-19 20:55:00,
2013-01-19 16:02:00,44.6,15.1,29.59,North,0,0.0,0.0,30,0.00,,---,0.00,VWS V14.00,2013-01-19 21:02:00,
2013-01-19 16:07:00,44.1,14.6,29.59,North,0,0.0,0.0,30,0.00,,---,0.00,VWS V14.00,2013-01-19 21:07:00,
2013-01-19 16:12:00,43.7,14.3,29.59,North,0,0.0,0.0,30,0.00,,---,0.00,VWS V14.00,2013-01-19 21:12:00,
2013-01-19 16:18:00,43.3,14.0,29.59,North,0,0.0,0.0,30,0.00,,---,0.00,VWS V14.00,2013-01-19 21:18:00,
2013-01-19 16:23:00,43.0,13.7,29.59,North,0,0.0,0.0,30,0.00,,---,0.00,VWS V14.00,2013-01-19 21:23:00,
2013-01-19 16:28:00,42.8,13.5,29.59,North,0,0.0,0.0,30,0.00,,---,0.00,VWS V14.00,2013-01-19 21:28:00,
2013-01-19 16:33:00,42.6,14.1,29.59,North,0,0.0,0.0,31,0.00,,---,0.00,VWS V14.00,2013-01-19 21:33:00,
2013-01-19 16:44:00,42.1,13.6,29.59,North,0,0.0,0.0,31,0.00,,---,0.00,VWS V14.00,2013-01-19 21:44:00,
2013-01-19 16:50:00,41.7,13.3,29.59,North,0,0.0,0.0,31,0.00,,---,0.00,VWS V14.00,2013-01-19 21:50:00,
2013-01-19 16:56:00,41.5,13.2,29.59,North,0,0.0,0.0,31,0.00,,---,0.00,VWS V14.00,2013-01-19 21:56:00,
2013-01-19 17:02:00,41.2,13.6,29.59,North,0,0.0,0.0,32,0.00,,---,0.00,VWS V14.00,2013-01-19 22:02:00,
2013-01-19 17:08:00,41.2,13.6,29.59,North,0,0.0,0.0,32,0.00,,---,0.00,VWS V14.00,2013-01-19 22:08:00,
2013-01-19 17:15:00,40.8,13.3,29.59,North,0,0.0,0.0,32,0.00,,---,0.00,VWS V14.00,2013-01-19 22:15:00,
2013-01-19 17:21:00,41.0,13.4,29.59,North,0,0.0,0.0,32,0.00,,---,0.00,VWS V14.00,2013-01-19 22:21:00,
2013-01-19 17:26:00,40.8,13.3,29.59,North,0,0.0,0.0,32,0.00,,---,0.00,VWS V14.00,2013-01-19 22:26:00,
2013-01-19 17:31:00,40.6,13.8,29.59,North,0,0.0,0.0,33,0.00,,---,0.00,VWS V14.00,2013-01-19 22:31:00,
2013-01-19 17:37:00,40.5,13.6,29.59,North,0,0.0,0.0,33,0.00,,---,0.00,VWS V14.00,2013-01-19 22:37:00,
2013-01-19 17:42:00,40.5,13.6,29.59,North,0,0.0,0.0,33,0.00,,---,0.00,VWS V14.00,2013-01-19 22:42:00,
2013-01-19 17:48:00,40.1,13.3,29.59,North,0,0.0,0.0,33,0.00,,---,0.00,VWS V14.00,2013-01-19 22:48:00,
2013-01-19 17:53:00,39.9,13.2,29.59,North,0,0.0,0.0,33,0.00,,---,0.00,VWS V14.00,2013-01-19 22:53:00,
2013-01-19 17:58:00,39.9,13.2,29.59,North,0,0.0,0.0,33,0.00,,---,0.00,VWS V14.00,2013-01-19 22:58:00,
2013-01-19 18:03:00,39.7,13.7,29.59,North,0,0.0,0.0,34,0.00,,---,0.00,VWS V14.00,2013-01-19 23:03:00,
2013-01-19 18:08:00,39.7,13.7,29.59,North,0,0.0,0.0,34,0.00,,---,0.00,VWS V14.00,2013-01-19 23:08:00,
2013-01-19 18:14:00,39.7,13.7,29.59,North,0,0.0,0.0,34,0.00,,---,0.00,VWS V14.00,2013-01-19 23:14:00,
2013-01-19 18:19:00,39.7,13.7,29.59,North,0,0.0,0.0,34,0.00,,---,0.00,VWS V14.00,2013-01-19 23:19:00,
2013-01-19 18:24:00,39.4,13.4,29.59,North,0,0.0,0.0,34,0.00,,---,0.00,VWS V14.00,2013-01-19 23:24:00,
2013-01-19 18:29:00,39.6,14.2,29.59,North,0,0.0,0.0,35,0.00,,---,0.00,VWS V14.00,2013-01-19 23:29:00,
2013-01-19 18:34:00,39.6,14.2,29.59,North,0,0.0,0.0,35,0.00,,---,0.00,VWS V14.00,2013-01-19 23:34:00,
2013-01-19 18:40:00,39.4,14.0,29.59,North,0,0.0,0.0,35,0.00,,---,0.00,VWS V14.00,2013-01-19 23:40:00,
2013-01-19 18:46:00,39.0,13.7,29.59,North,0,0.0,0.0,35,0.00,,---,0.00,VWS V14.00,2013-01-19 23:46:00,
2013-01-19 18:52:00,39.2,14.5,29.59,North,0,0.0,0.0,36,0.00,,---,0.00,VWS V14.00,2013-01-19 23:52:00,
2013-01-19 18:57:00,39.4,14.0,29.59,North,0,0.0,0.0,35,0.00,,---,0.00,VWS V14.00,2013-01-19 23:57:00,
2013-01-19 19:02:00,39.2,14.5,29.59,North,0,0.0,0.0,36,0.00,,---,0.00,VWS V14.00,2013-01-20 00:02:00,
2013-01-19 19:07:00,38.8,14.8,29.59,North,0,0.0,0.0,37,0.00,,---,0.00,VWS V14.00,2013-01-20 00:07:00,
2013-01-19 19:12:00,38.8,15.4,29.59,North,0,0.0,0.0,38,0.00,,---,0.00,VWS V14.00,2013-01-20 00:12:00,
2013-01-19 19:18:00,38.8,16.0,29.59,North,0,0.0,0.0,39,0.00,,---,0.00,VWS V14.00,2013-01-20 00:18:00,
2013-01-19 19:24:00,38.7,15.9,29.59,North,0,0.0,0.0,39,0.00,,---,0.00,VWS V14.00,2013-01-20 00:24:00,
2013-01-19 19:29:00,38.7,15.9,29.59,North,0,0.0,0.0,39,0.00,,---,0.00,VWS V14.00,2013-01-20 00:29:00,
2013-01-19 19:35:00,38.5,16.3,29.59,North,0,0.0,0.0,40,0.00,,---,0.00,VWS V14.00,2013-01-20 00:35:00,
2013-01-19 19:40:00,38.3,16.1,29.59,North,0,0.0,0.0,40,0.00,,---,0.00,VWS V14.00,2013-01-20 00:40:00,
2013-01-19 19:45:00,38.1,15.9,29.59,North,0,0.0,0.0,40,0.00,,---,0.00,VWS V14.00,2013-01-20 00:45:00,
2013-01-19 19:52:00,38.1,16.5,29.59,North,0,0.0,0.0,41,0.00,,---,0.00,VWS V14.00,2013-01-20 00:52:00,
2013-01-19 19:57:00,38.1,16.5,29.59,North,0,0.0,0.0,41,0.00,,---,0.00,VWS V14.00,2013-01-20 00:57:00,
2013-01-19 20:03:00,38.1,16.5,29.59,North,0,0.0,0.0,41,0.00,,---,0.00,VWS V14.00,2013-01-20 01:03:00,
2013-01-19 20:09:00,37.9,16.4,29.59,North,0,0.0,0.0,41,0.00,,---,0.00,VWS V14.00,2013-01-20 01:09:00,
2013-01-19 20:14:00,37.9,16.9,29.59,North,0,0.0,0.0,42,0.00,,---,0.00,VWS V14.00,2013-01-20 01:14:00,
2013-01-19 20:20:00,37.8,16.8,29.59,North,0,0.0,0.0,42,0.00,,---,0.00,VWS V14.00,2013-01-20 01:20:00,
2013-01-19 20:25:00,37.8,17.3,29.59,North,0,0.0,0.0,43,0.00,,---,0.00,VWS V14.00,2013-01-20 01:25:00,
2013-01-19 20:30:00,37.6,17.1,29.59,North,0,0.0,0.0,43,0.00,,---,0.00,VWS V14.00,2013-01-20 01:30:00,
2013-01-19 20:36:00,37.6,17.7,29.56,North,0,0.0,0.0,44,0.00,,---,0.00,VWS V14.00,2013-01-20 01:36:00,
2013-01-19 20:42:00,37.4,17.5,29.56,North,0,0.0,0.0,44,0.00,,---,0.00,VWS V14.00,2013-01-20 01:42:00,
2013-01-19 20:47:00,37.4,17.5,29.56,North,0,0.0,0.0,44,0.00,,---,0.00,VWS V14.00,2013-01-20 01:47:00,
2013-01-19 20:52:00,37.4,18.0,29.56,North,0,0.0,0.0,45,0.00,,---,0.00,VWS V14.00,2013-01-20 01:52:00,
2013-01-19 20:58:00,37.0,17.7,29.56,North,0,0.0,0.0,45,0.00,,---,0.00,VWS V14.00,2013-01-20 01:58:00,
2013-01-19 21:03:00,36.9,17.5,29.56,North,0,0.0,0.0,45,0.00,,---,0.00,VWS V14.00,2013-01-20 02:03:00,
2013-01-19 21:08:00,36.5,17.7,29.56,North,0,0.0,0.0,46,0.00,,---,0.00,VWS V14.00,2013-01-20 02:08:00,
2013-01-19 21:13:00,36.5,17.7,29.56,North,0,0.0,0.0,46,0.00,,---,0.00,VWS V14.00,2013-01-20 02:13:00,
2013-01-19 21:20:00,36.3,18.0,29.56,North,0,0.0,0.0,47,0.00,,---,0.00,VWS V14.00,2013-01-20 02:20:00,
2013-01-19 21:27:00,36.3,17.5,29.56,North,0,0.0,0.0,46,0.00,,---,0.00,VWS V14.00,2013-01-20 02:27:00,
2013-01-19 21:32:00,36.5,18.2,29.53,North,0,0.0,0.0,47,0.00,,---,0.00,VWS V14.00,2013-01-20 02:32:00,
2013-01-19 21:39:00,36.3,18.5,29.53,North,0,0.0,0.0,48,0.00,,---,0.00,VWS V14.00,2013-01-20 02:39:00,
2013-01-19 21:44:00,36.3,18.5,29.53,North,0,0.0,0.0,48,0.00,,---,0.00,VWS V14.00,2013-01-20 02:44:00,
2013-01-19 21:50:00,36.1,18.4,29.53,North,0,0.0,0.0,48,0.00,,---,0.00,VWS V14.00,2013-01-20 02:50:00,
2013-01-19 21:55:00,36.5,19.6,29.53,North,0,0.0,0.0,50,0.00,,---,0.00,VWS V14.00,2013-01-20 02:55:00,
2013-01-19 22:00:00,36.7,19.8,29.53,North,0,0.0,0.0,50,0.00,,---,0.00,VWS V14.00,2013-01-20 03:00:00,
2013-01-19 22:05:00,36.7,19.8,29.53,North,0,0.0,0.0,50,0.00,,---,0.00,VWS V14.00,2013-01-20 03:05:00,
2013-01-19 22:11:00,36.7,19.8,29.53,North,0,0.0,0.0,50,0.00,,---,0.00,VWS V14.00,2013-01-20 03:11:00,
2013-01-19 22:17:00,36.5,19.6,29.53,North,0,0.0,0.0,50,0.00,,---,0.00,VWS V14.00,2013-01-20 03:17:00,
2013-01-19 22:22:00,36.5,19.6,29.53,North,0,0.0,0.0,50,0.00,,---,0.00,VWS V14.00,2013-01-20 03:22:00,
2013-01-19 22:28:00,36.5,19.6,29.53,North,0,0.0,0.0,50,0.00,,---,0.00,VWS V14.00,2013-01-20 03:28:00,
2013-01-19 22:34:00,36.9,20.0,29.53,North,0,0.0,0.0,50,0.00,,---,0.00,VWS V14.00,2013-01-20 03:34:00,
2013-01-19 22:40:00,37.4,20.0,29.53,North,0,0.0,0.0,49,0.00,,---,0.00,VWS V14.00,2013-01-20 03:40:00,
2013-01-19 22:46:00,37.4,20.0,29.50,North,0,0.0,0.0,49,0.00,,---,0.00,VWS V14.00,2013-01-20 03:46:00,
2013-01-19 22:52:00,37.4,20.0,29.50,North,0,0.0,0.0,49,0.00,,---,0.00,VWS V14.00,2013-01-20 03:52:00,
2013-01-19 22:58:00,37.2,20.3,29.50,North,0,0.0,0.0,50,0.00,,---,0.00,VWS V14.00,2013-01-20 03:58:00,
2013-01-19 23:04:00,37.2,20.3,29.50,North,0,0.0,0.0,50,0.00,,---,0.00,VWS V14.00,2013-01-20 04:04:00,
2013-01-19 23:09:00,37.2,20.3,29.50,North,0,0.0,0.0,50,0.00,,---,0.00,VWS V14.00,2013-01-20 04:09:00,
2013-01-19 23:14:00,37.2,20.3,29.50,North,0,0.0,0.0,50,0.00,,---,0.00,VWS V14.00,2013-01-20 04:14:00,
2013-01-19 23:19:00,37.4,20.0,29.50,North,0,0.0,0.0,49,0.00,,---,0.00,VWS V14.00,2013-01-20 04:19:00,
2013-01-19 23:25:00,37.4,20.0,29.50,North,0,0.0,0.0,49,0.00,,---,0.00,VWS V14.00,2013-01-20 04:25:00,
2013-01-19 23:30:00,37.4,20.5,29.50,North,0,0.0,0.0,50,0.00,,---,0.00,VWS V14.00,2013-01-20 04:30:00,
2013-01-19 23:35:00,37.4,20.0,29.47,North,0,0.0,0.0,49,0.00,,---,0.00,VWS V14.00,2013-01-20 04:35:00,
2013-01-19 23:41:00,37.4,20.0,29.47,North,0,0.0,0.0,49,0.00,,---,0.00,VWS V14.00,2013-01-20 04:41:00,
2013-01-19 23:47:00,37.6,20.6,29.47,North,0,0.0,0.0,50,0.00,,---,0.00,VWS V14.00,2013-01-20 04:47:00,
2013-01-19 23:53:00,37.8,20.8,29.47,North,0,0.0,0.0,50,0.00,,---,0.00,VWS V14.00,2013-01-20 04:53:00,
2013-01-19 23:59:00,37.8,20.8,29.47,North,0,0.0,0.0,50,0.00,,---,0.00,VWS V14.00,2013-01-20 04:59:00,